Lid_Strength_Index
3 3 3 3 3 3 1 1 2 2 3 3 3 3 3 3 3 3 6 3 1 -2 -0 2 4 2 2 3 3 3 8 10 10 9 8 6 7 5 4 5 5 5 4 4 4
3 3 3 3 3 3 3 2 2 2 3 3 3 3 3 3 3 5 1 -2 -3 -1 4 5 5 4 5 4 4 5 8 9 6 6 7 6 6 6 6 6 6 6 6 4 5
4 4 4 4 4 4 3 2 2 3 3 3 3 3 3 2 4 5 -3 -3 -2 1 3 5 4 4 5 4 5 6 8 6 6 5 5 6 6 5 6 8 5 6 5 4 4
4 4 4 4 4 4 4 3 2 2 3 3 3 3 3 2 6 3 -3 -3 -3 3 4 5 5 5 6 6 5 7 6 6 6 5 6 6 5 6 6 5 4 3 4 4 5
4 4 4 4 4 4 4 4 3 2 3 3 3 3 4 4 4 -0 -3 -2 0 4 6 6 5 5 6 6 6 7 6 5 5 5 5 5 6 6 6 4 4 4 5 5 5
4 4 4 4 4 4 4 5 4 3 3 3 3 3 4 5 3 -0 2 3 4 5 6 6 4 3 5 6 6 6 6 6 5 5 5 7 6 6 5 4 6 6 5 5 5
3 4 4 4 4 4 4 5 5 3 2 3 2 3 5 4 3 1 3 5 4 5 4 4 2 3 4 6 5 5 7 6 6 6 6 6 8 8 5 5 5 6 5 5 5
3 3 4 4 4 4 4 5 5 3 2 2 2 3 5 4 2 4 4 4 4 4 5 1 2 3 4 4 5 7 7 10 7 6 6 6 10 7 5 5 5 6 6 5 4
3 3 4 4 4 3 4 5 4 2 2 2 3 5 6 3 4 3 3 4 4 5 3 1 2 4 5 7 8 8 10 10 9 6 7 7 9 7 5 5 6 5 5 5 4
3 3 3 4 4 4 4 4 3 3 3 2 4 6 5 5 4 4 3 4 5 4 4 3 4 5 6 7 10 9 10 9 10 8 7 9 9 7 6 6 6 5 5 5 5
3 3 3 3 3 4 4 5 6 6 6 7 7 7 6 5 4 4 3 4 5 5 7 7 7 8 8 7 7 8 8 9 8 7 8 9 9 7 6 6 6 6 5 5 4
3 3 3 4 4 4 5 6 8 8 9 7 6 7 6 5 6 5 3 5 6 7 7 7 8 7 7 7 8 8 9 9 8 7 8 9 9 7 7 6 6 6 5 5 4
4 4 3 4 4 5 6 6 6 7 9 8 7 6 6 5 6 5 4 5 7 7 8 8 7 7 8 8 8 8 9 9 9 8 8 8 9 8 7 6 6 5 4 4 4
4 4 4 4 5 6 6 5 6 7 9 9 8 6 5 5 6 4 4 4 6 7 7 7 7 8 8 8 7 9 7 8 9 10 12 8 12 9 8 7 7 6 5 5 4
4 4 4 4 6 7 6 6 5 6 13 8 8 5 6 5 5 5 4 4 6 7 7 8 7 7 8 8 7 8 7 8 9 10 10 11 12 9 8 8 7 5 5 4 3
4 4 4 6 6 6 6 5 4 8 13 9 8 9 7 7 6 5 5 4 5 6 7 7 6 7 7 6 6 6 7 8 9 9 12 12 12 10 9 8 7 5 5 4 4
4 4 5 5 6 6 5 3 9 11 6 9 10 9 9 8 7 7 6 6 7 9 9 8 7 7 6 7 6 7 9 11 12 12 13 11 12 10 7 6 6 6 5 4 4
5 5 6 5 5 5 4 6 12 9 8 6 9 10 10 9 8 8 7 8 7 7 8 9 11 8 7 7 8 8 9 11 15 14 12 10 12 9 6 5 5 5 4 4 4
6 6 6 5 5 5 6 10 9 8 7 7 8 10 10 9 9 8 8 8 7 6 8 9 10 7 6 6 6 9 9 8 12 11 12 10 9 7 6 6 6 5 5 5 5
6 6 6 4 4 4 8 12 8 7 6 7 9 8 9 9 8 8 8 7 7 6 5 7 9 8 6 6 6 7 7 11 10 14 15 12 12 11 8 8 6 6 5 5 4
5 6 4 4 4 5 10 11 9 7 7 8 8 8 8 8 8 9 9 7 6 7 6 6 8 8 7 8 8 9 9 10 10 11 13 15 11 8 8 7 7 6 5 5 4
7 8 3 4 5 8 9 10 9 7 6 7 6 7 7 7 9 9 9 7 5 6 8 6 8 9 8 7 6 7 8 9 11 13 12 13 12 6 7 6 6 6 5 4 4
8 8 3 4 7 7 7 9 8 7 6 7 7 6 6 8 9 8 7 5 5 6 7 6 9 11 10 8 7 8 8 9 9 10 13 13 11 7 6 7 6 6 5 4 4
7 7 4 5 6 7 7 7 9 7 7 7 6 6 7 8 7 8 8 6 5 6 5 6 9 10 10 10 8 9 9 9 10 12 11 11 10 7 7 7 6 6 5 4 4
8 8 6 7 6 6 6 7 8 8 7 6 6 7 7 9 8 9 7 7 5 5 6 6 9 9 8 8 8 9 9 9 10 9 11 10 10 8 7 7 6 5 5 4 4
8 7 5 6 6 7 7 7 8 7 7 7 7 7 7 8 8 9 7 7 7 6 7 6 9 9 10 8 9 10 8 9 9 9 9 9 9 7 6 5 6 5 5 5 4
7 5 4 7 7 7 7 7 7 6 5 6 6 7 7 6 5 5 5 5 5 7 8 8 9 10 11 9 9 10 9 9 9 9 9 10 8 6 7 6 6 5 5 5 5